CW3742 Weather Reports


time (UTC)temp
F
wind
direction
speed
knots
gust
knots
rain 1hr
in
rain 24hr
in
rain mn
in
humidity
%
barometer
mb
20260902070037 78 203 3.5 6.1 0.00 0.00 0.00 75 994.8
20260902063037 79 180 3.5 7.0 0.00 0.00 0.00 75 995.1
20260902060017 79 180 3.5 5.2 0.00 0.00 0.00 74 995.1
20260902053017 80 180 2.6 4.3 0.00 0.00 0.00 71 995.3
20260902050016 81 203 3.5 6.1 0.00 0.00 0.00 71 995.4
20260902043016 81 203 3.5 5.2 0.00 0.00 0.00 72 995.3
20260902040016 81 180 3.5 6.1 0.00 0.00 0.00 73 995.3
20260902033017 82 180 3.5 5.2 0.00 0.00 0.00 72 995.2
20260902030036 83 158 3.5 6.1 0.00 0.00 0.00 71 995.0
20260902023017 84 158 3.5 5.2 0.00 0.00 0.00 69 994.9
20260902020016 84 180 3.5 5.2 0.00 0.00 0.00 70 994.8
20260902013017 84 158 3.5 6.1 0.00 0.00 0.00 70 994.5
20260902003017 88 158 2.6 5.2 0.00 0.00 0.00 63 994.3
20260902000017 90 203 2.6 5.2 0.00 0.00 0.00 63 994.4
20260901233017 92 203 3.5 6.1 0.00 0.00 0.00 60 994.6
20260901230017 94 203 3.5 7.0 0.00 0.00 0.00 57 994.5
20260901223037 96 203 3.5 8.7 0.00 0.00 0.00 51 994.6
20260901220017 97 203 5.2 9.6 0.00 0.00 0.00 51 994.7
20260901213017 97 203 6.1 10.4 0.00 0.00 0.00 49 994.7
20260901210016 97 225 5.2 9.6 0.00 0.00 0.00 50 994.9
20260901203017 96 225 4.3 10.4 0.00 0.00 0.00 52 995.1
20260901200017 96 225 6.1 12.2 0.00 0.00 0.00 51 995.3
20260901193057 95 225 7.8 13.0 0.00 0.00 0.00 51 995.6
20260901190057 93 225 7.8 13.0 0.00 0.00 0.00 56 995.8
20260901183017 92 225 7.0 13.9 0.00 0.00 0.00 56 995.9
20260901180017 93 225 6.1 11.3 0.00 0.00 0.00 58 996.2
20260901173017 92 225 6.1 12.2 0.00 0.00 0.00 59 996.3
20260901170018 91 225 7.0 13.0 0.00 0.00 0.00 57 996.6
20260901163017 90 225 7.0 13.0 0.00 0.00 0.00 59 996.6
20260901160017 88 225 7.0 13.0 0.00 0.00 0.00 63 996.7
20260901153037 87 225 6.1 13.0 0.00 0.00 0.00 65 996.8
20260901150017 85 225 5.2 10.4 0.00 0.00 0.00 67 997.0
20260901143017 84 203 5.2 8.7 0.00 0.00 0.00 71 996.8
20260901140019 81 225 5.2 8.7 0.00 0.00 0.00 75 996.7
20260901133017 79 203 5.2 8.7 0.00 0.00 0.00 80 996.8
20260901130059 76 203 3.5 7.8 0.00 0.00 0.00 85 996.7
20260901123018 74 203 3.5 5.2 0.00 0.00 0.00 87 996.3
20260901120017 74 203 3.5 7.0 0.00 0.00 0.00 88 996.1
20260901113017 75 203 3.5 6.1 0.00 0.00 0.00 87 995.9
20260901110017 75 203 2.6 5.2 0.00 0.00 0.00 86 995.5
20260901103017 75 203 3.5 5.2 0.00 0.00 0.00 86 995.5
20260901100017 76 180 3.5 6.1 0.00 0.00 0.00 86 995.5
20260901093017 76 203 2.6 5.2 0.00 0.00 0.00 85 995.2
20260901090017 77 203 3.5 6.1 0.00 0.00 0.00 84 995.3
20260901083017 78 203 2.6 5.2 0.00 0.00 0.00 83 995.2
20260901080017 79 225 3.5 5.2 0.00 0.00 0.00 81 995.3
20260901073017 79 225 3.5 7.0 0.00 0.00 0.00 81 995.4